DW3400 Weather Reports


time (UTC)temp
F
wind
direction
speed
knots
gust
knots
rain 1hr
in
rain 24hr
in
rain mn
in
humidity
%
barometer
mb
20260506062502 48 42 0.9 2.6 0.00 0.00 0.00 76 1012.2
20260506061502 47 329 0.9 2.6 0.00 0.00 0.00 77 1012.1
20260506061003 47 330 0.9 5.2 0.00 0.00 0.00 77 1012.0
20260506060504 47 340 0.9 5.2 0.00 0.00 0.00 78 1012.0
20260506045003 43 296 0.0 1.7 0.00 0.00 0.00 86 1012.3
20260506044503 42 298 0.9 2.6 0.00 0.00 0.00 86 1012.3
20260506043502 42 296 0.9 2.6 0.00 0.00 0.00 86 1012.4
20260506042503 41 296 0.0 0.0 0.00 0.00 0.00 88 1012.5
20260506042003 41 294 0.0 0.0 0.00 0.00 0.00 88 1012.5
20260506041503 40 305 0.0 0.0 0.00 0.00 0.00 88 1012.4
20260506041002 40 305 0.0 0.0 0.00 0.00 0.00 87 1012.6
20260506040502 40 305 0.0 0.0 0.00 0.00 0.00 87 1012.5
20260506040003 40 305 0.0 0.0 0.00 0.00 0.00 87 1012.4
20260506035503 40 305 0.0 0.0 0.00 0.00 0.00 87 1012.4
20260506034503 40 305 0.0 0.0 0.00 0.00 0.00 87 1012.4
20260506033502 40 304 0.0 0.0 0.00 0.00 0.00 87 1012.5
20260506033004 40 304 0.0 0.0 0.00 0.00 0.00 87 1012.5
20260506032503 41 304 0.0 0.0 0.00 0.00 0.00 87 1012.5
20260506032003 41 289 0.0 0.0 0.00 0.00 0.00 87 1012.5
20260506031003 41 284 0.0 0.0 0.00 0.00 0.00 87 1012.5
20260506025503 41 293 0.9 1.7 0.00 0.00 0.00 87 1012.7
20260506025003 40 294 0.9 1.7 0.00 0.00 0.00 87 1012.7
20260506023503 39 8 0.0 0.0 0.00 0.00 0.00 86 1012.8
20260506021003 39 8 0.0 0.0 0.00 0.00 0.00 86 1013.0
20260506020004 39 8 0.0 0.0 0.00 0.00 0.00 85 1013.0
20260506015004 39 8 0.0 0.0 0.00 0.00 0.00 84 1013.0
20260506013503 39 8 0.0 0.0 0.00 0.00 0.00 82 1012.9
20260506013003 39 8 0.0 0.0 0.00 0.00 0.00 82 1012.9
20260506010503 40 333 0.0 0.0 0.00 0.00 0.00 79 1012.9
20260506005503 40 333 0.0 0.0 0.00 0.00 0.00 79 1012.9
20260506004504 40 289 0.9 1.7 0.00 0.00 0.00 78 1012.9
20260506003503 40 293 0.9 1.7 0.00 0.00 0.00 78 1012.9
20260506001003 40 295 0.0 0.0 0.00 0.00 0.00 79 1013.3
20260506000003 41 295 0.0 0.0 0.00 0.00 0.00 80 1013.4
20260505235503 41 295 0.0 1.7 0.00 0.00 0.00 81 1013.3
20260505235003 40 294 0.9 1.7 0.00 0.00 0.00 83 1013.2
20260505234503 40 280 0.0 0.0 0.00 0.00 0.00 84 1013.3
20260505234003 40 280 0.0 0.0 0.00 0.00 0.00 84 1013.4
20260505233503 40 280 0.0 0.0 0.00 0.00 0.00 84 1013.4
20260505232503 40 280 0.0 0.0 0.00 0.00 0.00 84 1013.5
20260505232003 40 280 0.0 0.0 0.00 0.00 0.00 84 1013.5
20260505231502 40 280 0.0 0.0 0.00 0.00 0.00 84 1013.5
20260505230503 41 280 0.0 0.0 0.00 0.00 0.00 83 1013.4
20260505224003 42 280 0.0 0.9 0.00 0.00 0.00 84 1013.4
20260505221003 43 281 0.0 0.9 0.00 0.00 0.00 88 1013.5
20260505220003 43 281 0.0 0.9 0.00 0.00 0.00 88 1013.7
20260505215503 43 295 0.0 0.9 0.00 0.00 0.00 88 1013.7
20260505215004 43 50 0.0 0.9 0.00 0.00 0.00 88 1013.8
20260505214503 43 50 0.0 0.0 0.00 0.00 0.00 88 1013.8
20260505213503 43 50 0.0 0.0 0.00 0.00 0.00 88 1013.9
20260505213003 43 50 0.0 0.0 0.00 0.00 0.00 87 1014.0
20260505212503 43 50 0.0 0.0 0.00 0.00 0.00 86 1014.0
20260505212003 44 50 0.0 0.0 0.00 0.00 0.00 86 1014.0
20260505211503 44 50 0.0 0.0 0.00 0.00 0.00 86 1014.0
20260505210503 44 50 0.0 0.0 0.00 0.00 0.00 85 1013.9
20260505203502 47 50 0.0 0.9 0.00 0.00 0.00 83 1013.9
20260505202503 47 56 0.0 0.9 0.00 0.00 0.00 84 1013.9
20260505202003 47 56 0.0 0.9 0.00 0.00 0.00 84 1013.9
20260505201003 48 56 0.0 0.9 0.00 0.00 0.00 83 1013.9
20260505200003 48 56 0.0 0.0 0.00 0.00 0.00 81 1013.9
20260505195503 49 56 0.0 0.9 0.00 0.00 0.00 81 1013.9
20260505192003 50 91 0.9 2.6 0.00 0.00 0.00 80 1013.7
20260505190503 51 200 0.0 0.0 0.00 0.00 0.00 79 1013.5
20260505190004 51 200 0.0 0.0 0.00 0.00 0.00 78 1013.5
20260505184003 52 200 0.0 0.0 0.00 0.00 0.00 77 1013.4
20260505182003 53 200 0.0 0.0 0.00 0.00 0.00 75 1013.4
20260505181003 53 200 0.0 0.0 0.00 0.00 0.00 74 1013.5
20260505175003 54 242 0.0 1.7 0.00 0.00 0.00 74 1013.4
20260505174504 54 174 0.0 0.9 0.00 0.00 0.00 74 1013.4
20260505174003 54 170 0.9 1.7 0.00 0.00 0.00 73 1013.5
20260505173502 54 205 0.9 1.7 0.00 0.00 0.00 72 1013.5
20260505172503 55 195 1.7 2.6 0.00 0.00 0.00 71 1013.4
20260505171503 56 191 0.9 2.6 0.00 0.00 0.00 70 1013.4
20260505170003 56 190 0.9 2.6 0.00 0.00 0.00 70 1013.5
20260505165003 58 199 1.7 2.6 0.00 0.00 0.00 67 1013.5
20260505164503 57 214 0.0 1.7 0.00 0.00 0.00 68 1013.5
20260505164003 57 203 0.9 1.7 0.00 0.00 0.00 68 1013.5
20260505163003 57 144 0.9 1.7 0.00 0.00 0.00 68 1013.6
20260505162003 56 150 0.9 4.3 0.00 0.00 0.00 70 1013.4
20260505160503 55 184 1.7 4.3 0.00 0.00 0.00 72 1013.5
20260505153003 55 127 1.7 2.6 0.00 0.00 0.00 71 1013.6
20260505152003 55 66 2.6 6.1 0.00 0.00 0.00 70 1013.6
20260505151503 56 98 1.7 6.1 0.00 0.00 0.00 69 1013.6
20260505140503 56 184 3.5 8.7 0.00 0.00 0.00 71 1013.8
20260505122503 58 103 3.5 7.8 0.00 0.00 0.00 69 1014.0
20260505122003 59 70 1.7 4.3 0.00 0.00 0.00 67 1014.0
20260505120502 58 284 1.7 5.2 0.00 0.00 0.00 60 1014.0
20260505120004 58 317 4.3 8.7 0.00 0.00 0.00 59 1014.0
20260505115503 58 316 2.6 7.8 0.00 0.00 0.00 61 1014.0
20260505115003 58 278 2.6 7.0 0.00 0.00 0.00 61 1014.1
20260505114003 57 311 2.6 7.0 0.00 0.00 0.00 59 1014.1
20260505113503 57 240 1.7 2.6 0.00 0.00 0.00 60 1014.3
20260505113003 57 309 1.7 7.0 0.00 0.00 0.00 60 1014.3
20260505112003 57 309 3.5 7.0 0.00 0.00 0.00 60 1014.3
20260505111503 58 304 0.9 7.8 0.00 0.00 0.00 60 1014.2
20260505110503 57 346 1.7 7.0 0.00 0.00 0.00 63 1014.3
20260505102003 55 302 4.3 7.0 0.00 0.00 0.00 66 1014.4
20260505101503 55 296 3.5 7.0 0.00 0.00 0.00 66 1014.4
20260505101003 55 311 2.6 8.7 0.00 0.00 0.00 69 1014.4
20260505100003 54 305 4.3 7.8 0.00 0.00 0.00 71 1014.4
20260505095502 54 296 5.2 10.4 0.00 0.00 0.00 71 1014.4
20260505095003 55 309 3.5 7.8 0.00 0.00 0.00 70 1014.3
20260505094003 54 338 5.2 11.3 0.00 0.00 0.00 73 1014.2
20260505093003 54 302 4.3 7.0 0.00 0.00 0.00 73 1014.3
20260505091503 54 314 3.5 7.8 0.00 0.00 0.00 72 1014.4
20260505091003 54 310 2.6 10.4 0.00 0.00 0.00 71 1014.3
20260505090503 54 290 2.6 4.3 0.00 0.00 0.00 73 1014.4
20260505090003 54 28 0.9 6.1 0.00 0.00 0.00 74 1014.3
20260505085502 53 331 2.6 7.0 0.00 0.00 0.00 73 1014.3
20260505085003 53 356 1.7 4.3 0.00 0.00 0.00 74 1014.4
20260505083003 52 313 5.2 8.7 0.00 0.00 0.00 76 1014.4
20260505081003 53 0 2.6 5.2 0.00 0.00 0.00 77 1014.2
20260505080503 52 340 2.6 7.8 0.00 0.00 0.00 75 1014.4
20260505080003 52 301 4.3 7.8 0.00 0.00 0.00 76 1014.4
20260505074503 51 305 6.1 10.4 0.00 0.00 0.00 77 1014.3
20260505074003 52 304 2.6 8.7 0.00 0.00 0.00 77 1014.4
20260505073503 51 298 4.3 7.0 0.00 0.00 0.00 80 1014.3
20260505072503 51 299 5.2 8.7 0.00 0.00 0.00 81 1014.4
20260505071003 51 300 2.6 4.3 0.00 0.00 0.00 82 1014.5
20260505070503 50 303 3.5 7.0 0.00 0.00 0.00 82 1014.6